Waarnemingen

Advertentie
Mijn weer
St-Hubert, België (6476): temperatuur & dauwpunt: 01.12.2019 08:00:00 - 07.12.2019 08:00:00 (CET)St-Hubert, België (6476): windsnelheid & windstoten: 01.12.2019 08:00:00 - 07.12.2019 08:00:00 (CET)St-Hubert, België (6476): windrichting: 01.12.2019 08:00:00 - 07.12.2019 08:00:00 (CET)St-Hubert, België (6476): luchtdruk: 01.12.2019 08:00:00 - 07.12.2019 08:00:00 (CET)St-Hubert, België (6476): zicht: 01.12.2019 08:00:00 - 07.12.2019 08:00:00 (CET)
Datum & Tijd tt [°C] td [°C] ff [km/u] ff [kn] fx [km/u] fx [kn] dd ppp [hPa] vv [km]
07.12.2019 08:00:00 4,7 3,9 11 6 29 16 WZW 1015,4 9
07.12.2019 07:00:00 5,0 4,2 14 8 - - WZW 1014,5 11
07.12.2019 06:00:00 4,9 4,3 14 8 29 16 W 1013,9 5
07.12.2019 05:00:00 5,0 4,4 14 8 32 18 W 1013,4 -
07.12.2019 04:00:00 5,0 4,2 14 8 - - WZW 1012,7 10
07.12.2019 03:00:00 5,2 4,4 18 10 36 19 WZW 1011,9 12
07.12.2019 02:00:00 5,3 4,6 18 10 36 19 WZW 1011,3 6
07.12.2019 01:00:00 5,3 4,8 22 12 - - WZW 1010,9 0,6
07.12.2019 00:00:00 4,6 4,2 22 12 43 23 ZW 1010,2 0,2
06.12.2019 23:00:00 3,7 3,2 18 10 40 21 ZW 1010,7 1,0
06.12.2019 22:00:00 3,2 2,6 22 12 - - ZW 1011,0 2,2
06.12.2019 21:00:00 2,8 2,1 22 12 43 23 ZZW 1011,0 2,8
06.12.2019 20:00:00 2,6 1,9 25 14 43 23 ZZW 1011,4 2,6
06.12.2019 19:00:00 2,2 1,7 22 12 - - ZW 1012,0 0,8
06.12.2019 18:00:00 2,2 1,4 18 10 40 21 ZW 1012,2 0,5
06.12.2019 17:00:00 1,9 1,2 22 12 50 27 ZZW 1012,6 3,9
06.12.2019 16:00:00 1,9 1,2 22 12 - - ZZW 1013,1 1,7
06.12.2019 15:00:00 2,0 1,2 22 12 36 19 ZZW 1013,9 5
06.12.2019 14:00:00 1,7 1,0 22 12 36 19 ZZW 1014,8 2,6
06.12.2019 13:00:00 1,6 1,0 18 10 - - ZZW 1015,6 1,4
06.12.2019 12:00:00 1,6 0,7 22 12 40 21 ZZW 1016,5 3,1
06.12.2019 11:00:00 0,7 -0,2 18 10 36 19 ZZW 1017,6 3,4
06.12.2019 10:00:00 0,0 -1,0 18 10 - - ZZW 1018,2 1,1
06.12.2019 09:00:00 -0,7 -1,9 14 8 29 16 ZZW 1018,6 5
06.12.2019 08:00:00 -1,6 -2,7 18 10 29 16 ZZW 1018,8 2,1
06.12.2019 07:00:00 -2,1 -3,0 14 8 - - ZZW 1019,1 -
06.12.2019 06:00:00 -2,7 -3,5 11 6 25 14 ZZW 1019,4 0,3
06.12.2019 05:00:00 -3,2 -4,1 11 6 22 12 ZZW 1019,9 0,4
06.12.2019 04:00:00 -3,5 -4,5 11 6 - - ZZW 1020,6 0,7
06.12.2019 03:00:00 -4,0 -5,0 18 10 29 16 Z 1020,8 0,4
06.12.2019 02:00:00 -3,9 -4,9 14 8 18 10 ZZW 1021,6 0,9
06.12.2019 01:00:00 -4,4 -5,5 11 6 - - ZZW 1022,3 3,4
06.12.2019 00:00:00 -4,4 -5,6 11 6 22 12 ZZW 1022,7 2,5
05.12.2019 23:00:00 -3,7 -5,1 14 8 22 12 ZZW 1022,1 5
05.12.2019 22:00:00 -3,8 -5,6 11 6 - - Z 1022,6 -
05.12.2019 21:00:00 -3,6 -5,1 11 6 18 10 ZZW 1022,9 4,0
05.12.2019 20:00:00 -3,8 -4,8 7 4 22 12 ZZW 1023,6 1,4
05.12.2019 19:00:00 -2,9 -4,2 14 8 - - ZZW 1023,5 2,9
05.12.2019 18:00:00 -2,5 -3,9 7 4 18 10 ZW 1023,7 3,1
05.12.2019 17:00:00 -0,9 -2,6 11 6 22 12 ZZW 1023,3 -
05.12.2019 16:00:00 1,4 -2,2 11 6 - - ZZW 1022,4 15
05.12.2019 15:00:00 2,8 -2,2 11 6 14 8 ZZW 1021,9 17
05.12.2019 14:00:00 3,6 -1,5 7 4 18 10 ZZW 1021,7 17
05.12.2019 13:00:00 2,6 -1,7 11 6 - - Z 1022,4 16
05.12.2019 12:00:00 1,3 -2,5 7 4 14 8 ZW 1023,7 11
05.12.2019 11:00:00 0,9 -2,2 4 2 14 8 Z 1023,8 -
05.12.2019 10:00:00 -0,3 -2,6 11 6 - - WNW 1023,9 -
05.12.2019 09:00:00 -2,8 -4,0 4 2 11 6 W 1024,1 4,9
05.12.2019 08:00:00 -2,9 -4,4 7 4 11 6 Z 1023,2 -
05.12.2019 07:00:00 -2,3 -4,0 4 2 - - W 1023,3 -
05.12.2019 06:00:00 -2,6 -4,6 4 2 11 6 ZZW 1023,2 10
05.12.2019 05:00:00 -1,8 -4,3 4 2 14 8 ZW 1022,7 12
05.12.2019 04:00:00 -2,1 -4,4 11 6 - - ZZO 1022,3 12
05.12.2019 03:00:00 -2,1 -4,1 4 2 7 4 ZZW 1023,0 12
05.12.2019 02:00:00 -2,2 -4,2 7 4 14 8 Z 1022,5 13
05.12.2019 01:00:00 -1,7 -3,8 7 4 - - Z 1022,3 16
05.12.2019 00:00:00 -0,9 -3,5 7 4 18 10 ZZO 1022,1 20
04.12.2019 23:00:00 -0,8 -3,1 11 6 18 10 ZO 1021,9 23
04.12.2019 22:00:00 0,2 -3,1 11 6 - - ZO 1021,6 30
04.12.2019 21:00:00 0,5 -2,7 11 6 22 12 OZO 1021,3 40
04.12.2019 20:00:00 0,9 -2,7 11 6 22 12 ZO 1021,5 45
04.12.2019 19:00:00 0,3 -2,7 7 4 - - O 1021,5 40
04.12.2019 18:00:00 0,1 -2,0 14 8 18 10 ONO 1021,1 45
04.12.2019 17:00:00 0,6 -1,6 11 6 14 8 ONO 1021,0 45
04.12.2019 16:00:00 3,1 -1,4 7 4 - - O 1020,4 40
04.12.2019 15:00:00 4,1 -2,1 14 8 25 14 O 1019,8 40
04.12.2019 14:00:00 4,2 -1,8 18 10 32 18 O 1020,0 40
04.12.2019 13:00:00 3,6 -2,9 25 14 - - O 1020,7 35
04.12.2019 12:00:00 2,7 -2,7 22 12 36 19 OZO 1021,7 35
04.12.2019 11:00:00 1,4 -2,6 22 12 36 19 OZO 1023,1 30
04.12.2019 10:00:00 0,6 -2,8 22 12 - - OZO 1023,3 29
04.12.2019 09:00:00 -1,1 -2,9 22 12 36 19 OZO 1023,8 16
04.12.2019 08:00:00 -1,8 -3,2 14 8 29 16 O 1024,4 -
04.12.2019 07:00:00 -0,6 -2,3 22 12 - - OZO 1023,9 15
04.12.2019 06:00:00 0,5 -1,8 22 12 29 16 OZO 1023,7 27
04.12.2019 05:00:00 0,0 -1,6 18 10 25 14 OZO 1024,0 20
04.12.2019 04:00:00 0,0 -1,6 18 10 - - OZO 1024,6 13
04.12.2019 03:00:00 0,2 -1,2 18 10 25 14 OZO 1025,2 12
04.12.2019 02:00:00 0,3 -1,1 14 8 29 16 OZO 1025,9 16
04.12.2019 01:00:00 0,6 -0,8 14 8 - - OZO 1026,5 22
04.12.2019 00:00:00 0,9 -0,8 14 8 25 14 OZO 1027,0 30
03.12.2019 23:00:00 0,7 -0,6 11 6 14 8 OZO 1027,1 18
03.12.2019 22:00:00 0,7 -0,3 7 4 - - O 1027,4 16
03.12.2019 21:00:00 1,6 0,1 11 6 18 10 OZO 1027,8 19
03.12.2019 20:00:00 1,6 0,3 11 6 14 8 O 1028,0 19
03.12.2019 19:00:00 2,0 0,4 4 2 - - O 1028,4 20
03.12.2019 18:00:00 2,2 0,8 7 4 14 8 O 1028,6 24
03.12.2019 17:00:00 2,6 1,0 4 2 7 4 ZZO 1028,7 30
03.12.2019 16:00:00 2,9 0,2 4 2 - - Z 1028,4 30
03.12.2019 15:00:00 3,4 1,0 4 2 11 6 ZZO 1028,4 30
03.12.2019 14:00:00 3,6 1,1 4 2 14 8 ZO 1028,7 45
03.12.2019 13:00:00 3,6 0,8 7 4 - - OZO 1029,5 45
03.12.2019 12:00:00 3,6 0,8 4 2 14 8 ZO 1030,0 45
03.12.2019 11:00:00 2,6 0,5 7 4 11 6 O 1030,8 45
03.12.2019 10:00:00 1,9 1,0 7 4 - - ONO 1030,8 18
03.12.2019 09:00:00 2,0 1,5 4 2 7 4 NO 1030,9 -
03.12.2019 08:00:00 1,3 1,2 4 2 7 4 ONO 1030,6 0,3
03.12.2019 07:00:00 1,8 1,5 4 2 - - NNO 1030,4 0,3
03.12.2019 06:00:00 1,0 1,0 0 0 4 2 N 1030,7 0,2
03.12.2019 05:00:00 1,6 1,2 4 2 7 4 NNW 1030,8 0,2
03.12.2019 04:00:00 1,8 1,8 4 2 - - NW 1030,6 0,1
03.12.2019 03:00:00 2,1 1,2 4 2 11 6 N 1030,7 3,0
03.12.2019 02:00:00 2,0 1,9 4 2 14 8 NNO 1030,6 0,3
03.12.2019 01:00:00 1,9 1,5 7 4 - - N 1030,8 0,1
03.12.2019 00:00:00 1,6 0,9 7 4 14 8 NNW 1030,7 0,1
02.12.2019 23:00:00 1,8 0,8 7 4 11 6 NNW 1030,4 0,3
02.12.2019 22:00:00 0,9 0,9 4 2 - - ZW 1030,9 -
02.12.2019 21:00:00 1,4 1,1 7 4 22 12 NNW 1030,6 -
02.12.2019 20:00:00 1,1 0,5 14 8 22 12 NNW 1030,2 0,1
02.12.2019 19:00:00 1,1 0,7 11 6 - - NNW 1029,8 0,1
02.12.2019 18:00:00 0,7 0,3 11 6 14 8 NW 1029,7 0,1
02.12.2019 17:00:00 0,5 0,2 7 4 14 8 WNW 1029,6 0,1
02.12.2019 16:00:00 0,2 -0,2 4 2 - - WNW 1029,6 0,1
02.12.2019 15:00:00 0,8 0,1 7 4 22 12 WNW 1029,1 0,2
02.12.2019 14:00:00 0,7 -0,3 11 6 18 10 NNW 1029,4 0,8
02.12.2019 13:00:00 0,5 -0,5 4 2 - - W 1029,4 0,3
02.12.2019 12:00:00 0,5 -0,4 7 4 14 8 NNW 1029,4 2,4
02.12.2019 11:00:00 0,5 -0,9 7 4 14 8 N 1029,0 -
02.12.2019 10:00:00 0,0 -0,9 4 2 - - N 1028,5 -
02.12.2019 09:00:00 -0,8 -1,8 11 6 18 10 NNO 1027,8 -
02.12.2019 08:00:00 -1,1 -2,5 11 6 22 12 NNO 1027,2 15
02.12.2019 07:00:00 -1,8 -3,6 14 8 - - NNO 1027,0 16
02.12.2019 06:00:00 -2,5 -4,6 14 8 18 10 NNO 1026,5 20
02.12.2019 05:00:00 -3,3 -5,2 7 4 22 12 NNO 1026,2 16
02.12.2019 04:00:00 -3,0 -5,0 14 8 - - NO 1025,5 16
02.12.2019 03:00:00 -3,5 -4,9 11 6 22 12 NO 1025,0 -
02.12.2019 02:00:00 -2,6 -4,5 14 8 25 14 NO 1024,3 13
02.12.2019 01:00:00 -2,4 -4,2 18 10 - - NO 1023,8 -
02.12.2019 00:00:00 -2,0 -3,4 14 8 22 12 NNO 1023,4 11
01.12.2019 23:00:00 -1,4 -3,1 14 8 22 12 NNO 1022,4 27
01.12.2019 22:00:00 -1,5 -2,6 14 8 - - NO 1021,8 14
01.12.2019 21:00:00 -1,4 -2,7 14 8 22 12 NO 1021,3 11
01.12.2019 20:00:00 -1,3 -2,3 14 8 25 14 NO 1021,0 2,2
01.12.2019 19:00:00 -1,3 -2,3 14 8 - - NO 1020,2 1,7
01.12.2019 18:00:00 -1,1 -1,9 14 8 32 18 NO 1019,3 1,2
01.12.2019 17:00:00 -1,1 -2,1 18 10 29 16 ONO 1018,5 2,7
01.12.2019 16:00:00 -1,1 -2,1 18 10 - - ONO 1017,9 5
01.12.2019 15:00:00 -1,2 -2,4 18 10 29 16 ONO 1018,0 1,7
01.12.2019 14:00:00 -1,2 -2,4 18 10 29 16 ONO 1018,4 1,6
01.12.2019 13:00:00 -0,7 -2,4 18 10 - - ONO 1018,2 3,3
01.12.2019 12:00:00 -0,2 -2,8 22 12 32 18 O 1017,9 20
01.12.2019 11:00:00 -0,1 -3,3 22 12 32 18 O 1017,9 35
01.12.2019 10:00:00 -0,5 -3,4 22 12 - - O 1017,2 35
01.12.2019 09:00:00 -0,7 -3,6 25 14 40 21 O 1016,8 40
01.12.2019 08:00:00 -0,7 -3,7 25 14 40 21 O 1016,3 45

tt = temperatuur
td = dauwpunt
ff = windsnelheid
fx = windstoten
dd = windrichting
ppp = luchtdruk
vv = zicht

Weerstations in de omgeving